START_TIME,STEP,MOV.,H8,t_acc.,H43,t_acc.,M25,t_acc.,H9,t_acc.
1980-11-16 06:00:18.100 ,5,0,0.,12.0,0.,12.0,0.,12.0,0.,12.0
1980-11-16 06:00:30.100 ,5,0,0.,12.0,0.,12.0,0.,12.0,0.,12.0
1980-11-16 06:00:42.100 ,6,0,0.,12.0,0.,12.0,0.,12.0,0.,12.0
1980-11-16 06:00:54.100 ,6,0,0.,12.0,0.,12.0,0.,12.0,0.,12.0
1980-11-16 06:01:06.100 ,6,0,0.,12.0,0.,12.0,0.,12.0,0.,12.0
1980-11-16 06:01:18.100 ,6,0,0.,12.0,0.,12.0,0.,12.0,0.,12.0
1980-11-16 06:01:30.100 ,7,0,0.,12.0,0.,12.0,0.,12.0,0.,12.0
1980-11-16 06:01:42.100 ,7,0,0.,12.0,0.,12.0,0.,12.0,0.,12.0
1980-11-16 06:01:54.100 ,7,0,0.,12.0,0.,12.0,0.,12.0,0.,12.0
1980-11-16 06:02:06.100 ,7,0,0.,12.0,0.,12.0,0.,12.0,0.,12.0
1980-11-16 06:02:18.100 ,7,0,0.,12.0,0.,12.0,0.,12.0,0.,12.0
1980-11-16 06:02:30.100 ,7,0,0.,12.0,0.,12.0,0.,12.0,0.,12.0
1980-11-16 06:02:42.100 ,7,0,0.,12.0,0.,12.0,0.,12.0,0.,12.0
1980-11-16 06:02:54.100 ,7,0,0.,12.0,0.,12.0,0.,12.0,0.,12.0
1980-11-16 06:03:06.100 ,6,0,0.,12.0,0.,12.0,0.,12.0,0.,12.0
1980-11-16 06:03:18.100 ,6,0,0.,12.0,0.,12.0,0.,12.0,0.,12.0
1980-11-16 06:03:30.100 ,6,0,0.,12.0,0.,12.0,0.,12.0,0.,12.0
1980-11-16 06:03:42.100 ,6,0,0.,12.0,0.,12.0,0.,12.0,0.,12.0
1980-11-16 06:03:54.100 ,5,0,0.,12.0,0.,12.0,0.,12.0,0.,12.0
1980-11-16 06:04:06.100 ,5,0,0.,12.0,0.,12.0,0.,12.0,0.,12.0
1980-11-16 06:04:18.100 ,5,0,0.,12.0,0.,12.0,0.,12.0,0.,12.0
1980-11-16 06:04:30.100 ,5,0,0.,12.0,0.,12.0,0.,12.0,0.,12.0
1980-11-16 06:04:42.100 ,4,0,0.,12.0,0.,12.0,0.,12.0,0.,12.0
1980-11-16 06:04:54.100 ,4,0,0.,12.0,0.,12.0,0.,12.0,0.,12.0
1980-11-16 06:05:06.100 ,4,0,0.,12.0,0.,12.0,0.,12.0,0.,12.0
1980-11-16 06:05:18.100 ,4,0,0.,12.0,0.,12.0,0.,12.0,0.,12.0
1980-11-16 06:05:30.100 ,3,0,0.,12.0,0.,12.0,0.,12.0,0.,12.0
1980-11-16 06:05:42.100 ,3,0,0.,12.0,0.,12.0,0.,12.0,0.,12.0
1980-11-16 06:05:54.100 ,3,0,0.,12.0,0.,12.0,0.,12.0,0.,12.0
1980-11-16 06:06:06.100 ,3,0,0.,12.0,0.,12.0,0.,12.0,0.,12.0
1980-11-16 06:06:18.100 ,2,0,0.,12.0,0.,12.0,0.,12.0,0.,12.0
1980-11-16 06:06:30.100 ,2,0,0.,12.0,0.,12.0,0.,12.0,0.,12.0
1980-11-16 06:06:42.100 ,2,0,0.,12.0,0.,12.0,0.,12.0,0.,12.0
1980-11-16 06:06:54.100 ,2,0,0.,12.0,0.,12.0,0.,12.0,0.,12.0
1980-11-16 06:07:06.100 ,1,0,0.,12.0,0.,12.0,0.,12.0,0.,12.0
1980-11-16 06:07:18.100 ,1,0,0.,12.0,0.,12.0,0.,12.0,0.,12.0
1980-11-16 06:07:30.100 ,1,0,0.,12.0,0.,12.0,0.,12.0,0.,12.0
1980-11-16 06:07:42.100 ,1,0,0.,12.0,0.,12.0,0.,12.0,0.,12.0
1980-11-16 06:07:54.100 ,0,0,0.,12.0,0.,12.0,0.,12.0,0.,12.0
1980-11-16 06:08:06.100 ,0,0,0.,12.0,0.,12.0,0.,12.0,0.,12.0
1980-11-16 06:08:18.100 ,0,0,0.,12.0,0.,12.0,0.,12.0,0.,12.0
1980-11-16 06:08:30.100 ,0,0,0.,12.0,0.,12.0,0.,12.0,0.,12.0
1980-11-16 06:08:42.100 ,0,0,0.,12.0,0.,12.0,0.,12.0,0.,12.0
1980-11-16 06:08:54.100 ,0,0,0.,12.0,0.,12.0,0.,12.0,0.,12.0
1980-11-16 06:09:06.100 ,0,0,0.,12.0,0.,12.0,0.,12.0,0.,12.0
1980-11-16 06:09:18.100 ,0,0,0.,12.0,0.,12.0,0.,12.0,0.,12.0
1980-11-16 06:09:30.100 ,1,0,1.,12.0,0.,12.0,0.,12.0,0.,12.0
1980-11-16 06:09:42.100 ,1,0,0.,12.0,0.,12.0,0.,12.0,0.,12.0
1980-11-16 06:09:54.100 ,1,0,0.,12.0,0.,12.0,0.,12.0,0.,12.0
1980-11-16 06:10:06.100 ,1,0,0.,12.0,0.,12.0,0.,12.0,0.,12.0
1980-11-16 06:10:18.100 ,2,0,0.,12.0,0.,12.0,0.,12.0,0.,12.0
1980-11-16 06:10:30.100 ,2,0,0.,12.0,0.,12.0,0.,12.0,0.,12.0
1980-11-16 06:10:42.100 ,2,0,0.,12.0,0.,12.0,0.,12.0,0.,12.0
1980-11-16 06:10:54.100 ,2,0,0.,12.0,0.,12.0,0.,12.0,0.,12.0
1980-11-16 06:11:06.100 ,3,0,0.,12.0,0.,12.0,0.,12.0,0.,12.0
1980-11-16 06:11:18.100 ,3,0,0.,12.0,0.,12.0,0.,12.0,0.,12.0
1980-11-16 06:11:30.100 ,3,0,0.,12.0,0.,12.0,0.,12.0,0.,12.0
1980-11-16 06:11:42.100 ,3,0,0.,12.0,0.,12.0,0.,12.0,0.,12.0
1980-11-16 06:11:54.100 ,4,0,0.,12.0,0.,12.0,0.,12.0,0.,12.0
1980-11-16 06:12:06.100 ,4,0,0.,12.0,0.,12.0,0.,12.0,0.,12.0
1980-11-16 06:12:18.100 ,4,0,0.,12.0,0.,12.0,0.,12.0,0.,12.0
1980-11-16 06:12:30.100 ,4,0,1.,12.0,0.,12.0,0.,12.0,0.,12.0
1980-11-16 06:12:42.100 ,5,0,0.,12.0,0.,12.0,0.,12.0,0.,12.0
1980-11-16 06:12:54.100 ,5,0,0.,12.0,0.,12.0,0.,12.0,0.,12.0
1980-11-16 06:13:06.100 ,5,0,0.,12.0,0.,12.0,0.,12.0,0.,12.0
1980-11-16 06:13:18.100 ,5,0,0.,12.0,0.,12.0,0.,12.0,0.,12.0
1980-11-16 06:14:18.100 ,0,0,0.,12.0,0.,12.0,0.,12.0,0.,12.0
1980-11-16 06:14:30.100 ,0,0,0.,12.0,0.,12.0,0.,12.0,0.,12.0
1980-11-16 06:14:42.100 ,0,0,0.,12.0,0.,12.0,0.,12.0,0.,12.0
1980-11-16 06:14:54.100 ,0,0,0.,12.0,0.,12.0,0.,12.0,0.,12.0
1980-11-16 06:15:06.100 ,7,0,0.,12.0,0.,12.0,0.,12.0,0.,12.0
1980-11-16 06:15:18.100 ,7,0,0.,12.0,0.,12.0,0.,12.0,0.,12.0
1980-11-16 06:15:30.100 ,7,0,0.,12.0,0.,12.0,0.,12.0,0.,12.0
1980-11-16 06:15:42.100 ,7,0,0.,12.0,0.,12.0,0.,12.0,0.,12.0
1980-11-16 06:15:54.100 ,6,0,0.,12.0,0.,12.0,0.,12.0,0.,12.0
1980-11-16 06:16:06.100 ,6,0,0.,12.0,0.,12.0,0.,12.0,0.,12.0
1980-11-16 06:16:18.100 ,6,0,0.,12.0,0.,12.0,0.,12.0,0.,12.0
1980-11-16 06:16:30.100 ,6,0,0.,12.0,0.,12.0,0.,12.0,0.,12.0
1980-11-16 06:16:42.100 ,5,0,0.,12.0,0.,12.0,0.,12.0,0.,12.0
1980-11-16 06:16:54.100 ,5,0,0.,12.0,0.,12.0,0.,12.0,0.,12.0
1980-11-16 06:17:06.100 ,5,0,0.,12.0,0.,12.0,0.,12.0,0.,12.0
1980-11-16 06:17:18.100 ,5,0,0.,12.0,0.,12.0,0.,12.0,0.,12.0
1980-11-16 06:17:30.100 ,4,0,0.,12.0,0.,12.0,0.,12.0,0.,12.0
1980-11-16 06:17:42.100 ,4,0,0.,12.0,0.,12.0,0.,12.0,0.,12.0
1980-11-16 06:17:54.100 ,4,0,0.,12.0,0.,12.0,0.,12.0,0.,12.0
1980-11-16 06:18:06.100 ,4,0,0.,12.0,0.,12.0,0.,12.0,0.,12.0
1980-11-16 06:18:18.100 ,3,0,0.,12.0,0.,12.0,0.,12.0,0.,12.0
1980-11-16 06:18:30.100 ,3,0,0.,12.0,0.,12.0,0.,12.0,0.,12.0
1980-11-16 06:18:42.100 ,3,0,0.,12.0,0.,12.0,0.,12.0,0.,12.0
1980-11-16 06:18:54.100 ,3,0,0.,12.0,0.,12.0,0.,12.0,0.,12.0
1980-11-16 06:19:06.100 ,2,0,0.,12.0,0.,12.0,0.,12.0,0.,12.0
1980-11-16 06:19:18.100 ,2,0,0.,12.0,0.,12.0,0.,12.0,0.,12.0
1980-11-16 06:19:30.100 ,2,0,0.,12.0,0.,12.0,0.,12.0,0.,12.0
1980-11-16 06:19:42.100 ,2,0,0.,12.0,0.,12.0,0.,12.0,0.,12.0
1980-11-16 06:19:54.100 ,1,0,0.,12.0,0.,12.0,0.,12.0,0.,12.0
1980-11-16 06:20:06.100 ,1,0,0.,12.0,0.,12.0,0.,12.0,0.,12.0
1980-11-16 06:20:18.100 ,1,0,0.,12.0,0.,12.0,0.,12.0,0.,12.0
1980-11-16 06:20:30.100 ,1,0,0.,12.0,0.,12.0,0.,12.0,0.,12.0
1980-11-16 06:20:42.100 ,0,0,0.,12.0,0.,12.0,0.,12.0,0.,12.0
1980-11-16 06:20:54.100 ,0,0,0.,12.0,0.,12.0,0.,12.0,0.,12.0
1980-11-16 06:21:06.100 ,0,0,0.,12.0,0.,12.0,0.,12.0,0.,12.0
1980-11-16 06:21:18.100 ,0,0,0.,12.0,0.,12.0,0.,12.0,0.,12.0
1980-11-16 06:21:30.100 ,0,0,0.,12.0,0.,12.0,0.,12.0,0.,12.0
1980-11-16 06:21:42.100 ,0,0,0.,12.0,0.,12.0,0.,12.0,0.,12.0
1980-11-16 06:21:54.100 ,0,0,0.,12.0,0.,12.0,0.,12.0,0.,12.0
1980-11-16 06:22:06.100 ,0,0,0.,12.0,0.,12.0,0.,12.0,0.,12.0
1980-11-16 06:22:18.100 ,1,0,0.,12.0,0.,12.0,0.,12.0,0.,12.0
1980-11-16 06:22:30.100 ,1,0,0.,12.0,0.,12.0,0.,12.0,0.,12.0
1980-11-16 06:22:42.100 ,1,0,0.,12.0,0.,12.0,0.,12.0,0.,12.0
1980-11-16 06:22:54.100 ,1,0,0.,12.0,0.,12.0,0.,12.0,0.,12.0
1980-11-16 06:23:06.100 ,2,0,0.,12.0,0.,12.0,0.,12.0,0.,12.0
1980-11-16 06:23:18.100 ,2,0,0.,12.0,0.,12.0,0.,12.0,0.,12.0
1980-11-16 06:23:30.100 ,2,0,0.,12.0,0.,12.0,0.,12.0,0.,12.0
1980-11-16 06:23:42.100 ,2,0,0.,12.0,0.,12.0,0.,12.0,0.,12.0
1980-11-16 06:23:54.100 ,3,0,0.,12.0,0.,12.0,0.,12.0,0.,12.0
1980-11-16 06:24:06.100 ,3,0,0.,12.0,0.,12.0,0.,12.0,0.,12.0
1980-11-16 06:24:18.100 ,3,0,0.,12.0,0.,12.0,0.,12.0,0.,12.0
1980-11-16 06:24:30.100 ,3,0,0.,12.0,0.,12.0,0.,12.0,0.,12.0
1980-11-16 06:24:42.100 ,4,0,0.,12.0,0.,12.0,0.,12.0,0.,12.0
1980-11-16 06:24:54.100 ,4,0,0.,12.0,0.,12.0,0.,12.0,0.,12.0
1980-11-16 06:25:06.100 ,4,0,0.,12.0,0.,12.0,0.,12.0,0.,12.0
1980-11-16 06:25:18.100 ,4,0,0.,12.0,0.,12.0,0.,12.0,0.,12.0
1980-11-16 06:25:30.100 ,5,0,0.,12.0,0.,12.0,0.,12.0,0.,12.0
1980-11-16 06:25:42.100 ,5,0,0.,12.0,0.,12.0,0.,12.0,0.,12.0
1980-11-16 06:25:54.100 ,5,0,0.,12.0,0.,12.0,0.,12.0,0.,12.0
1980-11-16 06:26:06.100 ,5,0,0.,12.0,0.,12.0,0.,12.0,0.,12.0
1980-11-16 06:26:18.100 ,6,0,0.,12.0,0.,12.0,0.,12.0,0.,12.0
1980-11-16 06:26:30.100 ,6,0,0.,12.0,0.,12.0,0.,12.0,0.,12.0
1980-11-16 06:26:42.100 ,6,0,0.,12.0,0.,12.0,0.,12.0,0.,12.0
1980-11-16 06:26:54.100 ,6,0,0.,12.0,0.,12.0,0.,12.0,0.,12.0
1980-11-16 06:27:06.100 ,7,0,0.,12.0,0.,12.0,0.,12.0,0.,12.0
1980-11-16 06:27:18.100 ,7,0,0.,12.0,0.,12.0,0.,12.0,0.,12.0
1980-11-16 06:27:30.100 ,7,0,0.,12.0,0.,12.0,0.,12.0,0.,12.0
1980-11-16 06:27:42.100 ,7,0,0.,12.0,0.,12.0,0.,12.0,0.,12.0
1980-11-16 06:27:54.100 ,7,0,0.,12.0,0.,12.0,0.,12.0,0.,12.0
1980-11-16 06:28:06.100 ,7,0,0.,12.0,0.,12.0,0.,12.0,0.,12.0
1980-11-16 06:28:18.100 ,7,0,0.,12.0,0.,12.0,0.,12.0,0.,12.0
1980-11-16 06:28:30.100 ,7,0,0.,12.0,0.,12.0,0.,12.0,0.,12.0
1980-11-16 06:28:42.100 ,6,0,0.,12.0,0.,12.0,0.,12.0,0.,12.0
1980-11-16 06:28:54.100 ,6,0,0.,12.0,0.,12.0,0.,12.0,0.,12.0
1980-11-16 06:29:06.100 ,6,0,0.,12.0,0.,12.0,0.,12.0,0.,12.0
1980-11-16 06:29:18.100 ,6,0,0.,12.0,0.,12.0,0.,12.0,0.,12.0
1980-11-16 06:29:30.100 ,5,0,0.,12.0,0.,12.0,0.,12.0,0.,12.0
1980-11-16 06:29:42.100 ,5,0,0.,12.0,0.,12.0,0.,12.0,0.,12.0
1980-11-16 06:29:54.100 ,5,0,0.,12.0,0.,12.0,0.,12.0,0.,12.0
1980-11-16 06:30:06.100 ,5,0,0.,12.0,0.,12.0,0.,12.0,0.,12.0
1980-11-16 06:30:18.100 ,4,0,0.,12.0,0.,12.0,0.,12.0,0.,12.0
1980-11-16 06:30:30.100 ,4,0,0.,12.0,0.,12.0,0.,12.0,0.,12.0
1980-11-16 06:30:42.100 ,4,0,0.,12.0,0.,12.0,0.,12.0,0.,12.0
1980-11-16 06:30:54.100 ,4,0,0.,12.0,0.,12.0,0.,12.0,0.,12.0
1980-11-16 06:31:06.100 ,3,0,0.,12.0,0.,12.0,0.,12.0,0.,12.0
1980-11-16 06:31:18.100 ,3,0,0.,12.0,0.,12.0,0.,12.0,0.,12.0
1980-11-16 06:31:30.100 ,3,0,0.,12.0,0.,12.0,0.,12.0,0.,12.0
1980-11-16 06:31:42.100 ,3,0,0.,12.0,0.,12.0,0.,12.0,0.,12.0
1980-11-16 06:31:54.100 ,2,0,0.,12.0,0.,12.0,0.,12.0,0.,12.0
1980-11-16 06:32:06.100 ,2,0,0.,12.0,0.,12.0,0.,12.0,0.,12.0
1980-11-16 06:32:18.100 ,2,0,0.,12.0,0.,12.0,0.,12.0,0.,12.0
1980-11-16 06:32:30.100 ,2,0,0.,12.0,0.,12.0,0.,12.0,0.,12.0
1980-11-16 06:32:42.100 ,1,0,0.,12.0,0.,12.0,0.,12.0,0.,12.0
1980-11-16 06:32:54.100 ,1,0,0.,12.0,0.,12.0,0.,12.0,0.,12.0
1980-11-16 06:33:06.100 ,1,0,0.,12.0,0.,12.0,0.,12.0,0.,12.0
1980-11-16 06:33:18.100 ,1,0,0.,12.0,0.,12.0,0.,12.0,0.,12.0
1980-11-16 06:33:30.100 ,0,0,0.,12.0,0.,12.0,0.,12.0,0.,12.0
1980-11-16 06:33:42.100 ,0,0,0.,12.0,0.,12.0,0.,12.0,0.,12.0
1980-11-16 06:33:54.100 ,0,0,0.,12.0,0.,12.0,0.,12.0,0.,12.0
1980-11-16 06:34:06.100 ,0,0,0.,12.0,0.,12.0,0.,12.0,0.,12.0
1980-11-16 06:34:18.100 ,0,0,0.,12.0,0.,12.0,0.,12.0,0.,12.0
1980-11-16 06:34:30.100 ,0,0,0.,12.0,0.,12.0,1.,12.0,0.,12.0
1980-11-16 06:34:42.100 ,0,0,0.,12.0,0.,12.0,0.,12.0,0.,12.0
1980-11-16 06:34:54.100 ,0,0,0.,12.0,0.,12.0,0.,12.0,0.,12.0
1980-11-16 06:35:06.100 ,1,0,0.,12.0,0.,12.0,0.,12.0,0.,12.0
1980-11-16 06:35:18.100 ,1,0,0.,12.0,0.,12.0,0.,12.0,0.,12.0
1980-11-16 06:35:30.100 ,1,0,0.,12.0,0.,12.0,0.,12.0,0.,12.0
1980-11-16 06:35:42.100 ,1,0,0.,12.0,0.,12.0,0.,12.0,0.,12.0
1980-11-16 06:35:54.100 ,2,0,0.,12.0,0.,12.0,0.,12.0,0.,12.0
1980-11-16 06:36:06.100 ,2,0,0.,12.0,0.,12.0,0.,12.0,0.,12.0
1980-11-16 06:36:18.100 ,2,0,0.,12.0,0.,12.0,0.,12.0,0.,12.0
1980-11-16 06:36:30.100 ,2,0,0.,12.0,0.,12.0,0.,12.0,0.,12.0
1980-11-16 06:36:42.100 ,3,0,0.,12.0,0.,12.0,0.,12.0,0.,12.0
1980-11-16 06:36:54.100 ,3,0,0.,12.0,0.,12.0,0.,12.0,0.,12.0
1980-11-16 06:37:06.100 ,3,0,0.,12.0,0.,12.0,0.,12.0,0.,12.0
1980-11-16 06:37:18.100 ,3,0,0.,12.0,0.,12.0,0.,12.0,0.,12.0
1980-11-16 06:37:30.100 ,4,0,0.,12.0,0.,12.0,0.,12.0,0.,12.0
1980-11-16 06:37:42.100 ,4,0,0.,12.0,0.,12.0,0.,12.0,0.,12.0
1980-11-16 06:37:54.100 ,4,0,0.,12.0,0.,12.0,0.,12.0,0.,12.0
1980-11-16 06:38:06.100 ,4,0,0.,12.0,0.,12.0,0.,12.0,0.,12.0
1980-11-16 06:38:18.100 ,5,0,0.,12.0,0.,12.0,0.,12.0,0.,12.0
1980-11-16 06:38:30.100 ,5,0,0.,12.0,0.,12.0,0.,12.0,0.,12.0
1980-11-16 06:38:42.100 ,5,0,0.,12.0,0.,12.0,0.,12.0,0.,12.0
1980-11-16 06:38:54.100 ,5,0,0.,12.0,0.,12.0,0.,12.0,0.,12.0
1980-11-16 06:39:06.100 ,6,0,0.,12.0,0.,12.0,0.,12.0,0.,12.0
1980-11-16 06:39:18.100 ,6,0,0.,12.0,0.,12.0,0.,12.0,0.,12.0
1980-11-16 06:39:30.100 ,6,0,0.,12.0,0.,12.0,0.,12.0,0.,12.0
1980-11-16 06:39:42.100 ,6,0,0.,12.0,0.,12.0,0.,12.0,0.,12.0
1980-11-16 06:39:54.100 ,7,0,0.,12.0,0.,12.0,0.,12.0,0.,12.0
1980-11-16 06:40:06.100 ,7,0,0.,12.0,0.,12.0,0.,12.0,0.,12.0
1980-11-16 06:40:18.100 ,7,0,0.,12.0,0.,12.0,0.,12.0,0.,12.0
1980-11-16 06:40:30.100 ,7,0,0.,12.0,0.,12.0,0.,12.0,0.,12.0
1980-11-16 06:40:42.100 ,7,0,0.,12.0,0.,12.0,0.,12.0,0.,12.0
1980-11-16 06:40:54.100 ,7,0,0.,12.0,0.,12.0,0.,12.0,0.,12.0
1980-11-16 06:41:06.100 ,7,0,0.,12.0,0.,12.0,0.,12.0,0.,12.0
1980-11-16 06:41:18.100 ,7,0,0.,12.0,0.,12.0,0.,12.0,0.,12.0
1980-11-16 06:41:30.100 ,6,0,0.,12.0,0.,12.0,0.,12.0,0.,12.0
1980-11-16 06:41:42.100 ,6,0,0.,12.0,0.,12.0,0.,12.0,0.,12.0
1980-11-16 06:41:54.100 ,6,0,0.,12.0,0.,12.0,0.,12.0,0.,12.0
1980-11-16 06:42:06.100 ,6,0,0.,12.0,0.,12.0,0.,12.0,0.,12.0
1980-11-16 06:42:18.100 ,5,0,0.,12.0,0.,12.0,0.,12.0,0.,12.0
1980-11-16 06:42:30.100 ,5,0,0.,12.0,0.,12.0,0.,12.0,0.,12.0
1980-11-16 06:42:42.100 ,5,0,0.,12.0,0.,12.0,0.,12.0,0.,12.0
1980-11-16 06:42:54.100 ,5,0,0.,12.0,0.,12.0,0.,12.0,0.,12.0
1980-11-16 06:43:06.100 ,4,0,0.,12.0,0.,12.0,0.,12.0,0.,12.0
1980-11-16 06:43:18.100 ,4,0,0.,12.0,0.,12.0,0.,12.0,0.,12.0
1980-11-16 06:43:30.100 ,4,0,0.,12.0,0.,12.0,0.,12.0,0.,12.0
1980-11-16 06:43:42.100 ,4,0,0.,12.0,0.,12.0,0.,12.0,0.,12.0
1980-11-16 06:43:54.100 ,3,0,0.,12.0,0.,12.0,0.,12.0,0.,12.0
1980-11-16 06:44:06.100 ,3,0,0.,12.0,0.,12.0,0.,12.0,0.,12.0
1980-11-16 06:44:18.100 ,3,0,0.,12.0,0.,12.0,0.,12.0,0.,12.0
1980-11-16 06:44:30.100 ,3,0,0.,12.0,0.,12.0,0.,12.0,0.,12.0
1980-11-16 06:44:42.100 ,2,0,0.,12.0,0.,12.0,0.,12.0,0.,12.0
1980-11-16 06:44:54.100 ,2,0,0.,12.0,0.,12.0,0.,12.0,0.,12.0
1980-11-16 06:45:06.100 ,2,0,0.,12.0,0.,12.0,0.,12.0,0.,12.0
1980-11-16 06:45:18.100 ,2,0,0.,12.0,0.,12.0,0.,12.0,0.,12.0
1980-11-16 06:45:30.100 ,1,0,0.,12.0,0.,12.0,0.,12.0,0.,12.0
1980-11-16 06:45:42.100 ,1,0,0.,12.0,0.,12.0,0.,12.0,0.,12.0
1980-11-16 06:45:54.100 ,1,0,0.,12.0,0.,12.0,0.,12.0,0.,12.0
1980-11-16 06:46:06.100 ,1,0,0.,12.0,0.,12.0,0.,12.0,0.,12.0
1980-11-16 06:46:18.100 ,0,0,0.,12.0,0.,12.0,0.,12.0,0.,12.0
1980-11-16 06:46:30.100 ,0,0,0.,12.0,0.,12.0,0.,12.0,0.,12.0
1980-11-16 06:46:42.100 ,0,0,0.,12.0,0.,12.0,0.,12.0,0.,12.0
1980-11-16 06:46:54.100 ,0,0,0.,12.0,0.,12.0,0.,12.0,0.,12.0
1980-11-16 06:47:06.100 ,0,0,0.,12.0,0.,12.0,0.,12.0,0.,12.0
1980-11-16 06:47:18.100 ,0,0,0.,12.0,0.,12.0,0.,12.0,0.,12.0
1980-11-16 06:47:30.100 ,0,0,0.,12.0,0.,12.0,0.,12.0,0.,12.0
1980-11-16 06:47:42.100 ,0,0,0.,12.0,0.,12.0,0.,12.0,0.,12.0
1980-11-16 06:47:54.100 ,1,0,0.,12.0,0.,12.0,0.,12.0,0.,12.0
1980-11-16 06:48:06.100 ,1,0,0.,12.0,0.,12.0,0.,12.0,0.,12.0
1980-11-16 06:48:18.100 ,1,0,0.,12.0,0.,12.0,0.,12.0,0.,12.0
1980-11-16 06:48:30.100 ,1,0,0.,12.0,0.,12.0,0.,12.0,0.,12.0
1980-11-16 06:48:42.100 ,2,0,0.,12.0,0.,12.0,0.,12.0,0.,12.0
1980-11-16 06:48:54.100 ,2,0,0.,12.0,0.,12.0,0.,12.0,0.,12.0
1980-11-16 06:49:06.100 ,2,0,0.,12.0,0.,12.0,0.,12.0,0.,12.0
1980-11-16 06:49:18.100 ,2,0,0.,12.0,0.,12.0,0.,12.0,0.,12.0
1980-11-16 06:49:30.100 ,3,0,0.,12.0,0.,12.0,0.,12.0,0.,12.0
1980-11-16 06:49:42.100 ,3,0,0.,12.0,0.,12.0,0.,12.0,0.,12.0
1980-11-16 06:49:54.100 ,3,0,0.,12.0,0.,12.0,0.,12.0,0.,12.0
1980-11-16 06:50:06.100 ,3,0,0.,12.0,0.,12.0,0.,12.0,0.,12.0
1980-11-16 06:50:18.100 ,4,0,0.,12.0,0.,12.0,0.,12.0,0.,12.0
1980-11-16 06:50:30.100 ,4,0,0.,12.0,0.,12.0,0.,12.0,0.,12.0
1980-11-16 06:50:42.100 ,4,0,0.,12.0,0.,12.0,0.,12.0,0.,12.0
1980-11-16 06:50:54.100 ,4,0,0.,12.0,0.,12.0,0.,12.0,0.,12.0
1980-11-16 06:51:06.100 ,5,0,0.,12.0,0.,12.0,0.,12.0,0.,12.0
1980-11-16 06:51:18.100 ,5,0,0.,12.0,0.,12.0,0.,12.0,0.,12.0
1980-11-16 06:51:30.100 ,5,0,0.,12.0,0.,12.0,0.,12.0,0.,12.0
1980-11-16 06:51:42.100 ,5,0,0.,12.0,0.,12.0,0.,12.0,0.,12.0
1980-11-16 06:51:54.100 ,6,0,0.,12.0,0.,12.0,0.,12.0,0.,12.0
1980-11-16 06:52:06.100 ,6,0,0.,12.0,0.,12.0,0.,12.0,0.,12.0
1980-11-16 06:52:18.100 ,6,0,0.,12.0,0.,12.0,0.,12.0,0.,12.0
1980-11-16 06:52:30.100 ,6,0,0.,12.0,0.,12.0,0.,12.0,0.,12.0
1980-11-16 06:52:42.100 ,7,0,0.,12.0,0.,12.0,0.,12.0,0.,12.0
1980-11-16 06:52:54.100 ,7,0,0.,12.0,0.,12.0,0.,12.0,0.,12.0
1980-11-16 06:53:06.100 ,7,0,0.,12.0,0.,12.0,0.,12.0,0.,12.0
1980-11-16 06:53:18.100 ,7,0,0.,12.0,0.,12.0,0.,12.0,0.,12.0
1980-11-16 06:53:30.100 ,7,0,0.,12.0,0.,12.0,0.,12.0,0.,12.0
1980-11-16 06:53:42.100 ,7,0,0.,12.0,0.,12.0,0.,12.0,0.,12.0
1980-11-16 06:53:54.100 ,7,0,0.,12.0,0.,12.0,0.,12.0,0.,12.0
1980-11-16 06:54:06.100 ,7,0,0.,12.0,0.,12.0,0.,12.0,0.,12.0
1980-11-16 06:54:18.100 ,6,0,0.,12.0,0.,12.0,0.,12.0,0.,12.0
1980-11-16 06:54:30.100 ,6,0,0.,12.0,0.,12.0,0.,12.0,0.,12.0
1980-11-16 06:54:42.100 ,6,0,0.,12.0,0.,12.0,0.,12.0,0.,12.0
1980-11-16 06:54:54.100 ,6,0,0.,12.0,0.,12.0,0.,12.0,0.,12.0
1980-11-16 06:55:06.100 ,5,0,0.,12.0,0.,12.0,0.,12.0,0.,12.0
1980-11-16 06:55:18.100 ,5,0,0.,12.0,0.,12.0,0.,12.0,0.,12.0
1980-11-16 06:55:30.100 ,5,0,0.,12.0,0.,12.0,0.,12.0,0.,12.0
1980-11-16 06:55:42.100 ,5,0,0.,12.0,0.,12.0,0.,12.0,0.,12.0
1980-11-16 06:55:54.100 ,4,0,0.,12.0,0.,12.0,0.,12.0,0.,12.0
1980-11-16 06:56:06.100 ,4,0,0.,12.0,0.,12.0,0.,12.0,0.,12.0
1980-11-16 06:56:18.100 ,4,0,0.,12.0,0.,12.0,0.,12.0,0.,12.0
1980-11-16 06:56:30.100 ,4,0,0.,12.0,0.,12.0,0.,12.0,0.,12.0
1980-11-16 06:56:42.100 ,3,0,0.,12.0,0.,12.0,0.,12.0,0.,12.0
1980-11-16 06:56:54.100 ,3,0,0.,12.0,0.,12.0,0.,12.0,0.,12.0
1980-11-16 06:57:06.100 ,3,0,0.,12.0,0.,12.0,0.,12.0,0.,12.0
1980-11-16 06:57:18.100 ,3,0,0.,12.0,0.,12.0,0.,12.0,0.,12.0
1980-11-16 06:57:30.100 ,2,0,0.,12.0,0.,12.0,0.,12.0,0.,12.0
1980-11-16 06:57:42.100 ,2,0,0.,12.0,0.,12.0,0.,12.0,0.,12.0
1980-11-16 06:57:54.100 ,2,0,0.,12.0,0.,12.0,0.,12.0,0.,12.0
1980-11-16 06:58:06.100 ,2,0,0.,12.0,0.,12.0,0.,12.0,0.,12.0
1980-11-16 06:58:18.100 ,1,0,0.,12.0,0.,12.0,0.,12.0,0.,12.0
1980-11-16 06:58:30.100 ,1,0,0.,12.0,0.,12.0,0.,12.0,0.,12.0
1980-11-16 06:58:42.100 ,1,0,0.,12.0,0.,12.0,0.,12.0,0.,12.0
1980-11-16 06:58:54.100 ,1,0,0.,12.0,0.,12.0,0.,12.0,0.,12.0
1980-11-16 06:59:06.100 ,0,0,0.,12.0,0.,12.0,0.,12.0,0.,12.0
1980-11-16 06:59:18.100 ,0,0,0.,12.0,0.,12.0,0.,12.0,0.,12.0
1980-11-16 06:59:30.100 ,0,0,0.,12.0,0.,12.0,0.,12.0,0.,12.0
1980-11-16 06:59:42.100 ,0,0,0.,12.0,0.,12.0,0.,12.0,0.,12.0
1980-11-16 06:59:54.100 ,0,0,0.,12.0,0.,12.0,0.,12.0,0.,12.0
1980-11-16 07:00:06.100 ,0,0,0.,12.0,0.,12.0,0.,12.0,0.,12.0
1980-11-16 07:00:18.100 ,0,0,0.,12.0,0.,12.0,0.,12.0,0.,12.0
1980-11-16 07:00:30.100 ,0,0,0.,12.0,0.,12.0,0.,12.0,0.,12.0
1980-11-16 07:00:42.100 ,1,0,0.,12.0,0.,12.0,0.,12.0,0.,12.0
1980-11-16 07:00:54.100 ,1,0,0.,12.0,0.,12.0,0.,12.0,0.,12.0
1980-11-16 07:01:06.100 ,1,0,0.,12.0,0.,12.0,0.,12.0,0.,12.0
1980-11-16 07:01:18.100 ,1,0,0.,12.0,0.,12.0,0.,12.0,0.,12.0
1980-11-16 07:01:30.100 ,2,0,0.,12.0,0.,12.0,0.,12.0,0.,12.0
1980-11-16 07:01:42.100 ,2,0,0.,12.0,0.,12.0,0.,12.0,0.,12.0
1980-11-16 07:01:54.100 ,2,0,0.,12.0,0.,12.0,0.,12.0,0.,12.0
1980-11-16 07:02:06.100 ,2,0,0.,12.0,0.,12.0,0.,12.0,0.,12.0
1980-11-16 07:02:18.100 ,3,0,0.,12.0,0.,12.0,0.,12.0,0.,12.0
1980-11-16 07:02:30.100 ,3,0,0.,12.0,0.,12.0,0.,12.0,0.,12.0
1980-11-16 07:02:42.100 ,3,0,0.,12.0,0.,12.0,0.,12.0,0.,12.0
1980-11-16 07:02:54.100 ,3,0,0.,12.0,0.,12.0,0.,12.0,0.,12.0
1980-11-16 07:03:06.100 ,4,0,0.,12.0,0.,12.0,0.,12.0,0.,12.0
1980-11-16 07:03:18.100 ,4,0,0.,12.0,0.,12.0,0.,12.0,0.,12.0
1980-11-16 07:03:30.100 ,4,0,0.,12.0,0.,12.0,0.,12.0,0.,12.0
1980-11-16 07:03:42.100 ,4,0,0.,12.0,0.,12.0,0.,12.0,0.,12.0
1980-11-16 07:03:54.100 ,5,0,0.,12.0,0.,12.0,0.,12.0,0.,12.0
1980-11-16 07:04:06.100 ,5,0,0.,12.0,0.,12.0,0.,12.0,0.,12.0
1980-11-16 07:04:18.100 ,5,0,0.,12.0,0.,12.0,0.,12.0,0.,12.0
1980-11-16 07:04:30.100 ,5,0,0.,12.0,0.,12.0,0.,12.0,0.,12.0
1980-11-16 07:04:42.100 ,6,0,0.,12.0,0.,12.0,0.,12.0,0.,12.0
1980-11-16 07:04:54.100 ,6,0,0.,12.0,0.,12.0,0.,12.0,0.,12.0
1980-11-16 07:05:06.100 ,6,0,0.,12.0,0.,12.0,0.,12.0,0.,12.0
1980-11-16 07:05:18.100 ,6,0,0.,12.0,0.,12.0,0.,12.0,0.,12.0
1980-11-16 07:05:30.100 ,7,0,0.,12.0,0.,12.0,0.,12.0,0.,12.0
1980-11-16 07:05:42.100 ,7,0,0.,12.0,0.,12.0,0.,12.0,0.,12.0
1980-11-16 07:05:54.100 ,7,0,0.,12.0,0.,12.0,0.,12.0,0.,12.0
1980-11-16 07:06:06.100 ,7,0,0.,12.0,0.,12.0,0.,12.0,0.,12.0
1980-11-16 07:06:18.100 ,7,0,0.,12.0,0.,12.0,0.,12.0,0.,12.0
1980-11-16 07:06:30.100 ,7,0,0.,12.0,0.,12.0,0.,12.0,0.,12.0
1980-11-16 07:06:42.100 ,7,0,0.,12.0,0.,12.0,0.,12.0,0.,12.0
1980-11-16 07:06:54.100 ,7,0,0.,12.0,0.,12.0,0.,12.0,0.,12.0
1980-11-16 07:07:06.100 ,6,0,0.,12.0,0.,12.0,0.,12.0,0.,12.0
1980-11-16 07:07:18.100 ,6,0,0.,12.0,0.,12.0,0.,12.0,0.,12.0
1980-11-16 07:07:30.100 ,6,0,0.,12.0,0.,12.0,0.,12.0,0.,12.0
1980-11-16 07:07:42.100 ,6,0,0.,12.0,0.,12.0,0.,12.0,0.,12.0
1980-11-16 07:07:54.100 ,5,0,0.,12.0,0.,12.0,0.,12.0,0.,12.0
1980-11-16 07:08:06.100 ,5,0,0.,12.0,0.,12.0,0.,12.0,0.,12.0
1980-11-16 07:08:18.100 ,5,0,0.,12.0,0.,12.0,0.,12.0,0.,12.0
1980-11-16 07:08:30.100 ,5,0,0.,12.0,0.,12.0,0.,12.0,0.,12.0
1980-11-16 07:08:42.100 ,4,0,0.,12.0,0.,12.0,0.,12.0,0.,12.0
1980-11-16 07:08:54.100 ,4,0,0.,12.0,0.,12.0,0.,12.0,0.,12.0
1980-11-16 07:09:06.100 ,4,0,0.,12.0,0.,12.0,0.,12.0,0.,12.0
1980-11-16 07:09:18.100 ,4,0,0.,12.0,0.,12.0,0.,12.0,0.,12.0
1980-11-16 07:09:30.100 ,3,0,0.,12.0,0.,12.0,0.,12.0,0.,12.0
1980-11-16 07:09:42.100 ,3,0,0.,12.0,0.,12.0,0.,12.0,0.,12.0
1980-11-16 07:09:54.100 ,3,0,0.,12.0,0.,12.0,0.,12.0,0.,12.0
1980-11-16 07:10:06.100 ,3,0,0.,12.0,0.,12.0,0.,12.0,0.,12.0
1980-11-16 07:10:18.100 ,2,0,0.,12.0,0.,12.0,0.,12.0,0.,12.0
1980-11-16 07:10:30.100 ,2,0,0.,12.0,0.,12.0,0.,12.0,0.,12.0
1980-11-16 07:10:42.100 ,2,0,0.,12.0,0.,12.0,0.,12.0,0.,12.0
1980-11-16 07:10:54.100 ,2,0,0.,12.0,0.,12.0,0.,12.0,0.,12.0
1980-11-16 07:11:06.100 ,1,0,0.,12.0,0.,12.0,0.,12.0,0.,12.0
1980-11-16 07:11:18.100 ,1,0,0.,12.0,0.,12.0,0.,12.0,0.,12.0
1980-11-16 07:11:30.100 ,1,0,0.,12.0,0.,12.0,0.,12.0,0.,12.0
1980-11-16 07:11:42.100 ,1,0,0.,12.0,0.,12.0,0.,12.0,0.,12.0
1980-11-16 07:11:54.100 ,0,0,0.,12.0,0.,12.0,0.,12.0,0.,12.0
1980-11-16 07:12:06.100 ,0,0,0.,12.0,0.,12.0,0.,12.0,0.,12.0
1980-11-16 07:12:18.100 ,0,0,0.,12.0,0.,12.0,0.,12.0,0.,12.0
1980-11-16 07:12:30.100 ,0,0,0.,12.0,0.,12.0,0.,12.0,0.,12.0
1980-11-16 07:12:42.100 ,0,0,0.,12.0,0.,12.0,0.,12.0,0.,12.0
1980-11-16 07:12:54.100 ,0,0,0.,12.0,0.,12.0,0.,12.0,0.,12.0
1980-11-16 07:13:06.100 ,0,0,0.,12.0,0.,12.0,0.,12.0,0.,12.0
1980-11-16 07:13:18.100 ,0,0,0.,12.0,0.,12.0,0.,12.0,0.,12.0
1980-11-16 07:13:30.100 ,1,0,0.,12.0,0.,12.0,0.,12.0,0.,12.0
1980-11-16 07:13:42.100 ,1,0,0.,12.0,0.,12.0,0.,12.0,0.,12.0
1980-11-16 07:13:54.100 ,1,0,0.,12.0,0.,12.0,0.,12.0,0.,12.0
1980-11-16 07:14:06.100 ,1,0,0.,12.0,0.,12.0,0.,12.0,0.,12.0
1980-11-16 07:14:18.100 ,2,0,0.,12.0,1.,12.0,0.,12.0,0.,12.0
1980-11-16 07:14:30.100 ,2,0,0.,12.0,0.,12.0,0.,12.0,0.,12.0
1980-11-16 07:14:42.100 ,2,0,0.,12.0,0.,12.0,0.,12.0,0.,12.0
1980-11-16 07:14:54.100 ,2,0,0.,12.0,0.,12.0,0.,12.0,0.,12.0
1980-11-16 07:15:06.100 ,3,0,0.,12.0,0.,12.0,0.,12.0,0.,12.0
1980-11-16 07:15:18.100 ,3,0,0.,12.0,0.,12.0,0.,12.0,0.,12.0
1980-11-16 07:15:30.100 ,3,0,0.,12.0,0.,12.0,0.,12.0,0.,12.0
1980-11-16 07:15:42.100 ,3,0,0.,12.0,0.,12.0,0.,12.0,0.,12.0
1980-11-16 07:15:54.100 ,4,0,0.,12.0,0.,12.0,0.,12.0,0.,12.0
1980-11-16 07:16:06.100 ,4,0,0.,12.0,0.,12.0,0.,12.0,0.,12.0
1980-11-16 07:16:18.100 ,4,0,0.,12.0,0.,12.0,0.,12.0,0.,12.0
1980-11-16 07:16:30.100 ,4,0,0.,12.0,0.,12.0,0.,12.0,0.,12.0
1980-11-16 07:16:42.100 ,5,0,0.,12.0,0.,12.0,0.,12.0,0.,12.0
1980-11-16 07:16:54.100 ,5,0,0.,12.0,0.,12.0,0.,12.0,0.,12.0
1980-11-16 07:17:06.100 ,5,0,0.,12.0,0.,12.0,0.,12.0,0.,12.0
1980-11-16 07:17:18.100 ,5,0,0.,12.0,0.,12.0,0.,12.0,0.,12.0
1980-11-16 07:17:30.100 ,6,0,0.,12.0,0.,12.0,0.,12.0,0.,12.0
1980-11-16 07:17:42.100 ,6,0,0.,12.0,0.,12.0,0.,12.0,0.,12.0
1980-11-16 07:17:54.100 ,6,0,0.,12.0,0.,12.0,0.,12.0,0.,12.0
1980-11-16 07:18:06.100 ,6,0,0.,12.0,0.,12.0,0.,12.0,0.,12.0